User: anonymous   Login
Location: Bourg-d�Oueil
(42.8588°N, 0.4991°E)
Time: 08:16:34
(UTC+00:00)
Language:

FengYun 1-2 T - Orbit

View from above orbital plane
View from above orbital plane
View from above satellite
View from above satellite

Ground track
Ground track

The orbit data is extracted from the following two-line orbital elements,

1 20855U 90081T   22028.95929535  .00000087  00000-0  74864-4 0  9997
2 20855  98.7044  35.0581 0023633 339.2124  78.6336 14.08707942613978
Epoch (UTC): 28 January 2022 23:01:23
Eccentricity: 0.0023633
inclination: 98.7044°
perigee height: 846 km
apogee height: 881 km
right ascension of ascending node: 35.0581°
argument of perigee: 339.2124°
revolutions per day: 14.08707942
mean anomaly at epoch: 78.6336°
orbit number at epoch: 61397

The dashed part of the orbit path shows where the satellite is in the earth's shadow,  

DLR